| time (UTC) | temp F | wind direction | speed knots | gust knots | rain 1hr in | rain 24hr in | rain mn in | humidity % | barometer mb |
| 20260504000457 | 69 | 290 | 7.0 | 13.0 | 0.00 | 0.00 | 0.00 | 25 | 1003.8 |
| 20260503235954 | 69 | 302 | 7.0 | 12.2 | 0.00 | 0.00 | 0.00 | 25 | 1003.8 |
| 20260503235452 | 69 | 287 | 7.0 | 13.9 | 0.00 | 0.00 | 0.00 | 24 | 1003.8 |
| 20260503234949 | 69 | 296 | 8.7 | 14.8 | 0.00 | 0.00 | 0.00 | 24 | 1003.8 |
| 20260503234446 | 69 | 278 | 10.4 | 14.8 | 0.00 | 0.00 | 0.00 | 23 | 1003.8 |
| 20260503233944 | 69 | 300 | 9.6 | 15.6 | 0.00 | 0.00 | 0.00 | 23 | 1003.8 |
| 20260503233440 | 69 | 273 | 8.7 | 15.6 | 0.00 | 0.00 | 0.00 | 23 | 1003.8 |
| 20260503232937 | 69 | 336 | 9.6 | 16.5 | 0.00 | 0.00 | 0.00 | 24 | 1003.8 |
| 20260503232434 | 69 | 281 | 10.4 | 17.4 | 0.00 | 0.00 | 0.00 | 25 | 1003.8 |
| 20260503231932 | 69 | 296 | 9.6 | 17.4 | 0.00 | 0.00 | 0.00 | 24 | 1003.8 |
| 20260503231429 | 70 | 280 | 8.7 | 16.5 | 0.00 | 0.00 | 0.00 | 24 | 1003.8 |
| 20260503230925 | 70 | 288 | 8.7 | 14.8 | 0.00 | 0.00 | 0.00 | 25 | 1003.8 |
| 20260503230422 | 70 | 306 | 9.6 | 15.6 | 0.00 | 0.00 | 0.00 | 25 | 1003.8 |
| 20260503225920 | 70 | 293 | 10.4 | 17.4 | 0.00 | 0.00 | 0.00 | 26 | 1003.8 |
| 20260503225416 | 69 | 268 | 11.3 | 20.9 | 0.00 | 0.00 | 0.00 | 25 | 1003.8 |
| 20260503224912 | 70 | 291 | 9.6 | 20.9 | 0.00 | 0.00 | 0.00 | 25 | 1003.8 |
| 20260503224409 | 71 | 322 | 9.6 | 17.4 | 0.00 | 0.00 | 0.00 | 25 | 1003.8 |
| 20260503223907 | 70 | 324 | 10.4 | 17.4 | 0.00 | 0.00 | 0.00 | 25 | 1003.8 |
| 20260503223405 | 70 | 275 | 11.3 | 21.7 | 0.00 | 0.00 | 0.00 | 25 | 1003.8 |
| 20260503222859 | 70 | 302 | 13.0 | 21.7 | 0.00 | 0.00 | 0.00 | 27 | 1003.8 |
| 20260503222358 | 70 | 287 | 12.2 | 20.9 | 0.00 | 0.00 | 0.00 | 26 | 1003.8 |
| 20260503221856 | 70 | 296 | 12.2 | 20.9 | 0.00 | 0.00 | 0.00 | 26 | 1003.8 |
| 20260503221355 | 70 | 327 | 10.4 | 16.5 | 0.00 | 0.00 | 0.00 | 27 | 1003.8 |
| 20260503220850 | 71 | 321 | 8.7 | 13.9 | 0.00 | 0.00 | 0.00 | 26 | 1003.8 |
| 20260503220347 | 71 | 316 | 9.6 | 17.4 | 0.00 | 0.00 | 0.00 | 29 | 1003.4 |
| 20260503215844 | 70 | 288 | 12.2 | 20.0 | 0.00 | 0.00 | 0.00 | 30 | 1003.4 |
| 20260503215341 | 70 | 283 | 11.3 | 20.0 | 0.00 | 0.00 | 0.00 | 30 | 1003.4 |
| 20260503214839 | 70 | 341 | 10.4 | 18.2 | 0.00 | 0.00 | 0.00 | 31 | 1003.8 |
| 20260503214336 | 70 | 312 | 10.4 | 18.2 | 0.00 | 0.00 | 0.00 | 33 | 1003.4 |
| 20260503213833 | 71 | 274 | 9.6 | 14.8 | 0.00 | 0.00 | 0.00 | 34 | 1003.8 |
| 20260503213331 | 70 | 283 | 10.4 | 17.4 | 0.00 | 0.00 | 0.00 | 36 | 1003.4 |
| 20260503212827 | 70 | 292 | 11.3 | 17.4 | 0.00 | 0.00 | 0.00 | 36 | 1003.8 |
| 20260503212326 | 70 | 295 | 12.2 | 19.1 | 0.00 | 0.00 | 0.00 | 36 | 1003.8 |
| 20260503211823 | 71 | 288 | 10.4 | 19.1 | 0.00 | 0.00 | 0.00 | 35 | 1003.8 |
| 20260503211319 | 71 | 305 | 9.6 | 15.6 | 0.00 | 0.00 | 0.00 | 36 | 1003.4 |
| 20260503210819 | 70 | 269 | 10.4 | 17.4 | 0.00 | 0.00 | 0.00 | 38 | 1003.4 |
| 20260503210317 | 71 | 277 | 9.6 | 17.4 | 0.00 | 0.00 | 0.00 | 37 | 1003.8 |
| 20260503205812 | 70 | 332 | 9.6 | 18.2 | 0.00 | 0.00 | 0.00 | 36 | 1003.8 |
| 20260503205309 | 70 | 279 | 11.3 | 19.1 | 0.00 | 0.00 | 0.00 | 36 | 1003.8 |
| 20260503204805 | 71 | 291 | 10.4 | 19.1 | 0.00 | 0.00 | 0.00 | 34 | 1003.8 |
| 20260503204303 | 71 | 319 | 9.6 | 16.5 | 0.00 | 0.00 | 0.00 | 34 | 1003.8 |
| 20260503203800 | 70 | 331 | 10.4 | 22.6 | 0.00 | 0.00 | 0.00 | 35 | 1003.8 |
| 20260503203257 | 70 | 323 | 11.3 | 22.6 | 0.00 | 0.00 | 0.00 | 35 | 1003.8 |
| 20260503202754 | 70 | 324 | 11.3 | 20.0 | 0.00 | 0.00 | 0.00 | 38 | 1004.1 |
| 20260503202252 | 70 | 290 | 10.4 | 18.2 | 0.00 | 0.00 | 0.00 | 37 | 1004.1 |
| 20260503201750 | 70 | 288 | 11.3 | 18.2 | 0.00 | 0.00 | 0.00 | 37 | 1004.1 |
| 20260503201247 | 70 | 288 | 10.4 | 18.2 | 0.00 | 0.00 | 0.00 | 36 | 1004.1 |
| 20260503200744 | 70 | 297 | 10.4 | 16.5 | 0.00 | 0.00 | 0.00 | 37 | 1004.1 |
| 20260503200240 | 70 | 284 | 10.4 | 19.1 | 0.00 | 0.00 | 0.00 | 35 | 1004.5 |
| 20260503195737 | 71 | 321 | 8.7 | 19.1 | 0.00 | 0.00 | 0.00 | 36 | 1004.1 |
| 20260503195234 | 70 | 283 | 9.6 | 16.5 | 0.00 | 0.00 | 0.00 | 37 | 1004.1 |
| 20260503194732 | 70 | 321 | 10.4 | 17.4 | 0.00 | 0.00 | 0.00 | 36 | 1004.1 |
| 20260503194227 | 70 | 334 | 8.7 | 16.5 | 0.00 | 0.00 | 0.00 | 38 | 1004.1 |
| 20260503193723 | 70 | 271 | 10.4 | 20.9 | 0.00 | 0.00 | 0.00 | 37 | 1004.1 |
| 20260503193219 | 70 | 283 | 9.6 | 20.9 | 0.00 | 0.00 | 0.00 | 37 | 1004.1 |
| 20260503192715 | 70 | 301 | 7.8 | 13.9 | 0.00 | 0.00 | 0.00 | 38 | 1004.1 |
| 20260503192210 | 69 | 281 | 7.8 | 16.5 | 0.00 | 0.00 | 0.00 | 39 | 1004.1 |
| 20260503191708 | 69 | 296 | 8.7 | 17.4 | 0.00 | 0.00 | 0.00 | 39 | 1004.5 |
| 20260503191205 | 69 | 292 | 8.7 | 17.4 | 0.00 | 0.00 | 0.00 | 40 | 1004.5 |
| 20260503190701 | 69 | 320 | 8.7 | 16.5 | 0.00 | 0.00 | 0.00 | 42 | 1004.5 |
| 20260503190158 | 69 | 355 | 7.8 | 13.9 | 0.00 | 0.00 | 0.00 | 42 | 1004.5 |
| 20260503185655 | 69 | 316 | 7.8 | 13.9 | 0.00 | 0.00 | 0.00 | 42 | 1004.5 |
| 20260503185150 | 69 | 273 | 7.8 | 13.9 | 0.00 | 0.00 | 0.00 | 42 | 1004.5 |
| 20260503184645 | 68 | 286 | 8.7 | 13.9 | 0.00 | 0.00 | 0.00 | 42 | 1004.5 |
| 20260503184142 | 68 | 277 | 7.8 | 13.9 | 0.00 | 0.00 | 0.00 | 42 | 1004.5 |
| 20260503183638 | 68 | 259 | 6.1 | 13.9 | 0.00 | 0.00 | 0.00 | 43 | 1004.5 |
| 20260503183136 | 68 | 275 | 6.1 | 14.8 | 0.00 | 0.00 | 0.00 | 43 | 1004.8 |
| 20260503182634 | 68 | 280 | 7.8 | 14.8 | 0.00 | 0.00 | 0.00 | 43 | 1004.8 |
| 20260503182132 | 68 | 276 | 5.2 | 10.4 | 0.00 | 0.00 | 0.00 | 44 | 1004.8 |
| 20260503181629 | 67 | 319 | 6.1 | 12.2 | 0.00 | 0.00 | 0.00 | 44 | 1004.8 |
| 20260503181126 | 67 | 306 | 6.1 | 12.2 | 0.00 | 0.00 | 0.00 | 44 | 1005.1 |
| 20260503180622 | 67 | 321 | 5.2 | 12.2 | 0.00 | 0.00 | 0.00 | 45 | 1005.1 |
| 20260503180120 | 66 | 301 | 6.1 | 15.6 | 0.00 | 0.00 | 0.00 | 44 | 1005.1 |
| 20260503175617 | 66 | 319 | 7.0 | 15.6 | 0.00 | 0.00 | 0.00 | 44 | 1005.1 |
| 20260503175114 | 66 | 313 | 6.1 | 11.3 | 0.00 | 0.00 | 0.00 | 45 | 1005.1 |
| 20260503174611 | 66 | 286 | 6.1 | 13.0 | 0.00 | 0.00 | 0.00 | 44 | 1005.1 |
| 20260503174108 | 66 | 318 | 7.0 | 13.9 | 0.00 | 0.00 | 0.00 | 46 | 1005.1 |
| 20260503173603 | 65 | 296 | 7.0 | 13.9 | 0.00 | 0.00 | 0.00 | 45 | 1005.1 |
| 20260503173059 | 65 | 310 | 7.0 | 12.2 | 0.00 | 0.00 | 0.00 | 46 | 1005.1 |
| 20260503172556 | 65 | 278 | 7.0 | 13.0 | 0.00 | 0.00 | 0.00 | 45 | 1005.5 |
| 20260503172054 | 65 | 248 | 7.0 | 13.0 | 0.00 | 0.00 | 0.00 | 46 | 1005.5 |
| 20260503171550 | 64 | 315 | 8.7 | 14.8 | 0.00 | 0.00 | 0.00 | 46 | 1005.5 |
| 20260503171048 | 65 | 270 | 9.6 | 14.8 | 0.00 | 0.00 | 0.00 | 45 | 1005.5 |
| 20260503170544 | 65 | 285 | 7.0 | 13.9 | 0.00 | 0.00 | 0.00 | 46 | 1005.5 |
| 20260503150937 | 61 | 238 | 7.0 | 11.3 | 0.00 | 0.00 | 0.00 | 48 | 1005.5 |
| 20260503150433 | 61 | 273 | 7.0 | 12.2 | 0.00 | 0.00 | 0.00 | 47 | 1005.5 |
| 20260503131326 | 58 | 248 | 1.7 | 7.8 | 0.00 | 0.00 | 0.00 | 56 | 1005.8 |
| 20260503130824 | 57 | 242 | 1.7 | 6.1 | 0.00 | 0.00 | 0.00 | 57 | 1005.8 |
| 20260503130321 | 57 | 191 | 1.7 | 6.1 | 0.00 | 0.00 | 0.00 | 57 | 1005.8 |
| 20260503110714 | 50 | 155 | 2.6 | 5.2 | 0.00 | 0.00 | 0.00 | 70 | 1006.2 |
| 20260503110212 | 50 | 148 | 2.6 | 4.3 | 0.00 | 0.00 | 0.00 | 72 | 1006.2 |
| 20260503100138 | 51 | 153 | 1.7 | 5.2 | 0.00 | 0.00 | 0.00 | 67 | 1006.2 |
| 20260503081533 | 54 | 201 | 2.6 | 6.1 | 0.00 | 0.00 | 0.00 | 55 | 1007.3 |
| 20260503081030 | 55 | 190 | 2.6 | 6.1 | 0.00 | 0.00 | 0.00 | 54 | 1007.3 |
| 20260503080526 | 55 | 179 | 2.6 | 5.2 | 0.00 | 0.00 | 0.00 | 54 | 1007.6 |
| 20260503072500 | 55 | 192 | 2.6 | 7.0 | 0.00 | 0.00 | 0.00 | 55 | 1007.9 |
| 20260503071957 | 55 | 190 | 2.6 | 7.0 | 0.00 | 0.00 | 0.00 | 56 | 1007.9 |
| 20260503071454 | 55 | 198 | 2.6 | 6.1 | 0.00 | 0.00 | 0.00 | 57 | 1007.9 |
| 20260503070950 | 55 | 194 | 1.7 | 5.2 | 0.00 | 0.00 | 0.00 | 58 | 1007.9 |
| 20260503070447 | 55 | 190 | 1.7 | 3.5 | 0.00 | 0.00 | 0.00 | 59 | 1007.9 |
| 20260503054906 | 58 | 282 | 2.6 | 8.7 | 0.00 | 0.00 | 0.00 | 55 | 1009.6 |
| 20260503054402 | 57 | 132 | 1.7 | 4.3 | 0.00 | 0.00 | 0.00 | 56 | 1009.6 |
| 20260503053900 | 58 | 242 | 1.7 | 2.6 | 0.00 | 0.00 | 0.00 | 53 | 1009.6 |
| 20260503053358 | 58 | 241 | 1.7 | 3.5 | 0.00 | 0.00 | 0.00 | 52 | 1009.6 |
| 20260503052854 | 58 | 241 | 1.7 | 3.5 | 0.00 | 0.00 | 0.00 | 52 | 1009.6 |
| 20260503052351 | 58 | 240 | 1.7 | 3.5 | 0.00 | 0.00 | 0.00 | 51 | 1009.6 |
| 20260503051847 | 58 | 240 | 1.7 | 3.5 | 0.00 | 0.00 | 0.00 | 51 | 1009.6 |
| 20260503051344 | 58 | 242 | 1.7 | 6.1 | 0.00 | 0.00 | 0.00 | 51 | 1009.6 |
| 20260503050841 | 58 | 238 | 2.6 | 7.0 | 0.00 | 0.00 | 0.00 | 51 | 1009.6 |
| 20260503050337 | 58 | 246 | 2.6 | 7.0 | 0.00 | 0.00 | 0.00 | 51 | 1009.6 |
| 20260503045834 | 58 | 259 | 2.6 | 7.8 | 0.00 | 0.00 | 0.00 | 50 | 1009.6 |
| 20260503045332 | 58 | 242 | 2.6 | 7.8 | 0.00 | 0.00 | 0.00 | 50 | 1009.6 |
| 20260503044828 | 58 | 237 | 3.5 | 7.0 | 0.00 | 0.00 | 0.00 | 50 | 1009.6 |
| 20260503044325 | 59 | 252 | 3.5 | 7.8 | 0.00 | 0.00 | 0.00 | 50 | 1009.6 |
| 20260503043822 | 59 | 235 | 2.6 | 9.6 | 0.00 | 0.00 | 0.00 | 49 | 1010.1 |
| 20260503043319 | 58 | 235 | 3.5 | 9.6 | 0.00 | 0.00 | 0.00 | 49 | 1010.1 |
| 20260503042815 | 58 | 254 | 2.6 | 6.1 | 0.00 | 0.00 | 0.00 | 49 | 1010.1 |
| 20260503042312 | 58 | 212 | 1.7 | 4.3 | 0.00 | 0.00 | 0.00 | 49 | 1010.1 |
| 20260503041808 | 58 | 226 | 0.9 | 2.6 | 0.00 | 0.00 | 0.00 | 49 | 1010.1 |
| 20260503041306 | 58 | 225 | 0.9 | 4.3 | 0.00 | 0.00 | 0.00 | 49 | 1010.1 |
| 20260503040804 | 58 | 215 | 0.9 | 4.3 | 0.00 | 0.00 | 0.00 | 49 | 1010.1 |
| 20260503040301 | 58 | 200 | 1.7 | 4.3 | 0.00 | 0.00 | 0.00 | 48 | 1010.1 |
| 20260503035757 | 58 | 182 | 1.7 | 4.3 | 0.00 | 0.00 | 0.00 | 48 | 1010.4 |
| 20260503035255 | 58 | 239 | 1.7 | 4.3 | 0.00 | 0.00 | 0.00 | 48 | 1010.4 |
| 20260503034752 | 58 | 252 | 1.7 | 5.2 | 0.00 | 0.00 | 0.00 | 48 | 1010.4 |
| 20260503034249 | 57 | 244 | 1.7 | 5.2 | 0.00 | 0.00 | 0.00 | 49 | 1010.7 |
| 20260503033746 | 57 | 218 | 1.7 | 4.3 | 0.00 | 0.00 | 0.00 | 50 | 1010.7 |
| 20260503033244 | 57 | 232 | 0.9 | 2.6 | 0.00 | 0.00 | 0.00 | 51 | 1010.7 |
| 20260503032742 | 57 | 234 | 0.9 | 2.6 | 0.00 | 0.00 | 0.00 | 51 | 1010.7 |
| 20260503032240 | 57 | 234 | 0.9 | 3.5 | 0.00 | 0.00 | 0.00 | 50 | 1010.7 |
| 20260503031737 | 57 | 234 | 1.7 | 3.5 | 0.00 | 0.00 | 0.00 | 50 | 1010.7 |
| 20260503031235 | 57 | 232 | 0.9 | 3.5 | 0.00 | 0.00 | 0.00 | 50 | 1011.1 |
| 20260503030731 | 57 | 233 | 0.9 | 3.5 | 0.00 | 0.00 | 0.00 | 49 | 1011.1 |
| 20260503030228 | 57 | 233 | 0.9 | 3.5 | 0.00 | 0.00 | 0.00 | 49 | 1011.1 |
| 20260503025725 | 57 | 229 | 0.9 | 3.5 | 0.00 | 0.00 | 0.00 | 48 | 1011.1 |
| 20260503025222 | 57 | 234 | 0.9 | 3.5 | 0.00 | 0.00 | 0.00 | 48 | 1011.1 |
| 20260503024719 | 57 | 236 | 0.9 | 3.5 | 0.00 | 0.00 | 0.00 | 47 | 1011.1 |
| 20260503024216 | 57 | 217 | 0.0 | 2.6 | 0.00 | 0.00 | 0.00 | 47 | 1011.1 |
| 20260503023713 | 58 | 203 | 0.9 | 4.3 | 0.00 | 0.00 | 0.00 | 47 | 1011.1 |
| 20260503023209 | 58 | 202 | 0.9 | 4.3 | 0.00 | 0.00 | 0.00 | 47 | 1011.1 |
| 20260503022706 | 57 | 200 | 0.9 | 2.6 | 0.00 | 0.00 | 0.00 | 47 | 1011.1 |
| 20260503022205 | 57 | 210 | 0.0 | 2.6 | 0.00 | 0.00 | 0.00 | 47 | 1011.1 |
| 20260503021703 | 57 | 210 | 0.9 | 2.6 | 0.00 | 0.00 | 0.00 | 47 | 1011.1 |
| 20260503021159 | 57 | 209 | 0.0 | 2.6 | 0.00 | 0.00 | 0.00 | 46 | 1011.1 |
| 20260503020656 | 57 | 196 | 0.0 | 2.6 | 0.00 | 0.00 | 0.00 | 47 | 1011.1 |
| 20260503020154 | 58 | 196 | 0.9 | 2.6 | 0.00 | 0.00 | 0.00 | 46 | 1011.1 |
| 20260503015650 | 58 | 198 | 0.9 | 2.6 | 0.00 | 0.00 | 0.00 | 46 | 1011.1 |
| 20260503015147 | 58 | 198 | 1.7 | 4.3 | 0.00 | 0.00 | 0.00 | 46 | 1011.1 |
| 20260503014643 | 58 | 198 | 1.7 | 4.3 | 0.00 | 0.00 | 0.00 | 46 | 1011.1 |
| 20260503014141 | 58 | 196 | 1.7 | 3.5 | 0.00 | 0.00 | 0.00 | 45 | 1011.1 |
| 20260503013638 | 58 | 196 | 1.7 | 5.2 | 0.00 | 0.00 | 0.00 | 45 | 1011.1 |
| 20260503013136 | 58 | 177 | 0.9 | 5.2 | 0.00 | 0.00 | 0.00 | 45 | 1011.1 |
| 20260503012633 | 59 | 184 | 0.9 | 3.5 | 0.00 | 0.00 | 0.00 | 45 | 1011.1 |
| 20260503012130 | 59 | 185 | 0.9 | 3.5 | 0.00 | 0.00 | 0.00 | 45 | 1011.4 |
| 20260503011626 | 59 | 194 | 1.7 | 4.3 | 0.00 | 0.00 | 0.00 | 44 | 1011.4 |
| 20260503011124 | 59 | 192 | 1.7 | 5.2 | 0.00 | 0.00 | 0.00 | 44 | 1011.4 |
| 20260503010620 | 59 | 195 | 1.7 | 5.2 | 0.00 | 0.00 | 0.00 | 44 | 1011.4 |
| 20260503010117 | 59 | 198 | 1.7 | 4.3 | 0.00 | 0.00 | 0.00 | 43 | 1011.4 |
| 20260503005614 | 60 | 199 | 1.7 | 4.3 | 0.00 | 0.00 | 0.00 | 43 | 1011.4 |
| 20260503005111 | 60 | 202 | 1.7 | 5.2 | 0.00 | 0.00 | 0.00 | 42 | 1011.4 |
| 20260503004607 | 60 | 190 | 1.7 | 5.2 | 0.00 | 0.00 | 0.00 | 42 | 1011.4 |
| 20260503004106 | 60 | 197 | 1.7 | 4.3 | 0.00 | 0.00 | 0.00 | 41 | 1011.4 |
| 20260503003602 | 60 | 193 | 0.9 | 4.3 | 0.00 | 0.00 | 0.00 | 41 | 1011.4 |
| 20260503003059 | 61 | 193 | 1.7 | 4.3 | 0.00 | 0.00 | 0.00 | 41 | 1011.8 |
| 20260503002556 | 61 | 242 | 1.7 | 6.1 | 0.00 | 0.00 | 0.00 | 41 | 1011.8 |
| 20260503002053 | 61 | 246 | 2.6 | 6.1 | 0.00 | 0.00 | 0.00 | 41 | 1011.8 |
| 20260503001549 | 61 | 244 | 2.6 | 7.0 | 0.00 | 0.00 | 0.00 | 39 | 1011.8 |
| 20260503001047 | 61 | 236 | 2.6 | 9.6 | 0.00 | 0.00 | 0.00 | 39 | 1011.8 |